Overview Statistics Trail Chart Weather Telemetry Raw packets
 

This is the latest recevied weather packets stored in our database for station/object WW5JC. If no packets are shown the sender has not sent any weather packets the latest 10 day(s).

<< 92 93 94 95 96 97 98 >>
Time Temp. Humidity Pressure Rain* Wind** Luminosity Snow
1787944141 36.67° C 37% 1019.1 hPa 0 mm - 697 W/m² -
1787943835 35.56° C 41% 1019.2 hPa 0 mm - 691 W/m² -
1787943531 36.11° C 39% 1019.1 hPa 0 mm - 169 W/m² -
1787943226 37.78° C 39% 1018.9 hPa 0 mm - 757 W/m² -
1787942925 36.11° C 39% 1019 hPa 0 mm - 729 W/m² -
1787942621 36.11° C 39% 1019.3 hPa 0 mm - 228 W/m² -
1787942320 36.11° C 40% 1019.6 hPa 0 mm - 678 W/m² -
1787942016 36.11° C 42% 1019.4 hPa 0 mm - 728 W/m² -
1787941711 35.56° C 42% 1019.5 hPa 0 mm - 715 W/m² -
1787941409 35° C 43% 1019.5 hPa 0 mm - 697 W/m² -
1787941109 35.56° C 43% 1019.5 hPa 0 mm - 206 W/m² -
1787940805 35.56° C 44% 1019.6 hPa 0 mm - 320 W/m² -
1787940501 36.11° C 43% 1019.7 hPa 0 mm - 698 W/m² -
1787940196 36.11° C 42% 1019.6 hPa 0 mm - 601 W/m² -
1787939896 35.56° C 43% 1019.7 hPa 0 mm - 702 W/m² -
1787939590 35.56° C 44% 1019.9 hPa 0 mm - 687 W/m² -
1787939285 35.56° C 43% 1019.8 hPa 0 mm - 682 W/m² -
1787938980 35.56° C 42% 1019.9 hPa 0 mm - 666 W/m² -
1787938678 35.56° C 43% 1020 hPa 0 mm - 661 W/m² -
1787938375 35° C 45% 1020.3 hPa 0 mm - 655 W/m² -
1787938075 35° C 45% 1020.3 hPa 0 mm - 294 W/m² -
1787937770 35° C 45% 1020.3 hPa 0 mm - 651 W/m² -
1787937467 35° C 43% 1020.4 hPa 0 mm - 633 W/m² -
1787937163 35.56° C 42% 1020.5 hPa 0 mm - 621 W/m² -
1787936862 35° C 49% 1020.4 hPa 0 mm - 612 W/m² -

* Rain latest hour (hover to see other rain measurements)
** Current wind speed in m/s (hover to see current wind gust speed)